Time,TemperatureF,DewpointF,PressureIn,WindDirection,WindDirectionDegrees,WindSpeedMPH,WindSpeedGustMPH,Humidity,HourlyPrecipIn,Conditions,Clouds,dailyrainin,SoftwareType,DateUTC
2013-06-22 00:03:00,81.5,75.0,29.93,ENE,65,4.0,16.0,81,0.00,,,0.00,weatherlink.com 1.10,2013-06-22 04:03:00,
2013-06-22 00:18:00,81.4,75.0,29.93,ENE,59,5.0,11.0,80,0.00,,,0.00,weatherlink.com 1.10,2013-06-22 04:18:00,
2013-06-22 00:33:00,81.4,75.0,29.92,East,82,2.0,16.0,80,0.00,,,0.00,weatherlink.com 1.10,2013-06-22 04:33:00,
2013-06-22 00:48:00,81.2,74.0,29.91,ENE,76,10.0,14.0,79,0.00,,,0.00,weatherlink.com 1.10,2013-06-22 04:48:00,
2013-06-22 01:03:00,81.3,74.0,29.91,ENE,73,7.0,13.0,79,0.00,,,0.00,weatherlink.com 1.10,2013-06-22 05:03:00,
2013-06-22 01:18:00,81.1,74.0,29.91,ESE,123,4.0,13.0,79,0.00,,,0.00,weatherlink.com 1.10,2013-06-22 05:18:00,
2013-06-22 01:33:00,81.1,75.0,29.90,NE,52,3.0,11.0,81,0.00,,,0.00,weatherlink.com 1.10,2013-06-22 05:33:00,
2013-06-22 01:48:00,81.2,75.0,29.90,East,94,7.0,15.0,82,0.00,,,0.00,weatherlink.com 1.10,2013-06-22 05:48:00,
2013-06-22 02:03:00,81.1,75.0,29.90,East,88,5.0,10.0,81,0.00,,,0.00,weatherlink.com 1.10,2013-06-22 06:03:00,
2013-06-22 02:18:00,81.1,75.0,29.89,ENE,72,7.0,13.0,81,0.00,,,0.00,weatherlink.com 1.10,2013-06-22 06:18:00,
2013-06-22 02:34:00,81.0,75.0,29.89,East,96,5.0,11.0,81,0.00,,,0.00,weatherlink.com 1.10,2013-06-22 06:34:00,
2013-06-22 02:49:00,81.0,75.0,29.88,East,85,2.0,10.0,82,0.00,,,0.00,weatherlink.com 1.10,2013-06-22 06:49:00,
2013-06-22 03:04:00,80.9,75.0,29.88,East,100,8.0,15.0,82,0.00,,,0.00,weatherlink.com 1.10,2013-06-22 07:04:00,
2013-06-22 03:19:00,80.8,75.0,29.88,East,86,5.0,11.0,81,0.00,,,0.00,weatherlink.com 1.10,2013-06-22 07:19:00,
2013-06-22 03:34:00,80.9,75.0,29.88,ENE,73,7.0,9.0,82,0.00,,,0.00,weatherlink.com 1.10,2013-06-22 07:34:00,
2013-06-22 03:49:00,80.8,74.0,29.88,ESE,102,5.0,13.0,80,0.00,,,0.00,weatherlink.com 1.10,2013-06-22 07:49:00,
2013-06-22 04:04:00,80.8,74.0,29.88,ENE,61,9.0,15.0,80,0.00,,,0.00,weatherlink.com 1.10,2013-06-22 08:04:00,
2013-06-22 04:19:00,80.7,75.0,29.88,NE,55,2.0,10.0,82,0.00,,,0.00,weatherlink.com 1.10,2013-06-22 08:19:00,
2013-06-22 04:34:00,80.7,74.0,29.88,ENE,71,3.0,14.0,80,0.00,,,0.00,weatherlink.com 1.10,2013-06-22 08:34:00,
2013-06-22 04:49:00,80.8,75.0,29.88,ESE,107,3.0,15.0,81,0.00,,,0.00,weatherlink.com 1.10,2013-06-22 08:49:00,
2013-06-22 05:04:00,80.8,75.0,29.89,ENE,65,5.0,9.0,82,0.00,,,0.00,weatherlink.com 1.10,2013-06-22 09:04:00,
2013-06-22 05:19:00,80.8,74.0,29.89,East,90,6.0,14.0,80,0.00,,,0.00,weatherlink.com 1.10,2013-06-22 09:19:00,
2013-06-22 05:34:00,80.8,75.0,29.89,SE,134,9.0,14.0,82,0.00,,,0.00,weatherlink.com 1.10,2013-06-22 09:34:00,
2013-06-22 05:49:00,80.7,75.0,29.89,ESE,103,4.0,12.0,82,0.00,,,0.00,weatherlink.com 1.10,2013-06-22 09:49:00,
2013-06-22 06:04:00,80.7,74.0,29.89,East,80,8.0,11.0,81,0.00,,,0.00,weatherlink.com 1.10,2013-06-22 10:04:00,
2013-06-22 06:19:00,80.8,75.0,29.90,ENE,76,11.0,16.0,81,0.00,,,0.00,weatherlink.com 1.10,2013-06-22 10:19:00,
2013-06-22 06:34:00,80.0,74.0,29.91,ESE,119,5.0,11.0,81,0.00,,,0.00,weatherlink.com 1.10,2013-06-22 10:34:00,
2013-06-22 06:49:00,79.9,73.0,29.91,SE,124,4.0,10.0,80,0.00,,,0.00,weatherlink.com 1.10,2013-06-22 10:49:00,
2013-06-22 07:04:00,80.2,74.0,29.91,East,90,7.0,12.0,80,0.00,,,0.00,weatherlink.com 1.10,2013-06-22 11:04:00,
2013-06-22 07:19:00,80.4,74.0,29.92,East,88,2.0,9.0,80,0.00,,,0.00,weatherlink.com 1.10,2013-06-22 11:19:00,
2013-06-22 07:34:00,80.7,74.0,29.92,ESE,117,8.0,10.0,79,0.00,,,0.00,weatherlink.com 1.10,2013-06-22 11:34:00,
2013-06-22 07:49:00,82.6,75.0,29.92,East,88,3.0,12.0,78,0.00,,,0.00,weatherlink.com 1.10,2013-06-22 11:49:00,
2013-06-22 08:04:00,82.0,75.0,29.92,ESE,103,8.0,12.0,78,0.00,,,0.00,weatherlink.com 1.10,2013-06-22 12:04:00,
2013-06-22 08:19:00,81.6,73.0,29.93,ESE,109,5.0,14.0,75,0.00,,,0.00,weatherlink.com 1.10,2013-06-22 12:19:00,
2013-06-22 08:34:00,81.9,74.0,29.93,SE,125,2.0,11.0,77,0.00,,,0.00,weatherlink.com 1.10,2013-06-22 12:34:00,
2013-06-22 08:49:00,82.2,75.0,29.93,SE,134,4.0,11.0,78,0.00,,,0.00,weatherlink.com 1.10,2013-06-22 12:49:00,
2013-06-22 09:04:00,83.4,75.0,29.93,ESE,115,8.0,13.0,75,0.00,,,0.00,weatherlink.com 1.10,2013-06-22 13:04:00,
2013-06-22 09:19:00,83.8,75.0,29.94,ESE,123,8.0,14.0,75,0.00,,,0.00,weatherlink.com 1.10,2013-06-22 13:19:00,
2013-06-22 09:34:00,84.7,75.0,29.93,East,90,10.0,13.0,72,0.00,,,0.00,weatherlink.com 1.10,2013-06-22 13:34:00,
2013-06-22 09:49:00,85.7,76.0,29.93,ENE,77,10.0,15.0,72,0.00,,,0.00,weatherlink.com 1.10,2013-06-22 13:49:00,
2013-06-22 10:04:00,85.5,75.0,29.94,NE,50,8.0,17.0,71,0.00,,,0.00,weatherlink.com 1.10,2013-06-22 14:04:00,
2013-06-22 10:19:00,85.5,76.0,29.94,SSE,155,6.0,17.0,72,0.00,,,0.00,weatherlink.com 1.10,2013-06-22 14:19:00,
2013-06-22 10:34:00,86.4,76.0,29.94,ESE,115,7.0,14.0,70,0.00,,,0.00,weatherlink.com 1.10,2013-06-22 14:34:00,
2013-06-22 10:49:00,86.1,75.0,29.93,ENE,71,14.0,17.0,70,0.00,,,0.00,weatherlink.com 1.10,2013-06-22 14:49:00,
2013-06-22 11:04:00,86.1,75.0,29.93,SE,136,10.0,18.0,69,0.00,,,0.00,weatherlink.com 1.10,2013-06-22 15:04:00,
2013-06-22 11:19:00,86.2,76.0,29.93,ESE,119,10.0,21.0,71,0.00,,,0.00,weatherlink.com 1.10,2013-06-22 15:19:00,
2013-06-22 11:34:00,86.2,76.0,29.93,ESE,115,10.0,19.0,71,0.00,,,0.00,weatherlink.com 1.10,2013-06-22 15:34:00,
2013-06-22 11:49:00,86.1,75.0,29.92,East,92,19.0,19.0,69,0.00,,,0.00,weatherlink.com 1.10,2013-06-22 15:49:00,
2013-06-22 12:04:00,86.1,75.0,29.92,East,82,10.0,18.0,70,0.00,,,0.00,weatherlink.com 1.10,2013-06-22 16:04:00,
2013-06-22 12:19:00,86.8,75.0,29.92,SE,132,8.0,17.0,68,0.00,,,0.00,weatherlink.com 1.10,2013-06-22 16:19:00,
2013-06-22 12:34:00,86.0,73.0,29.91,East,82,11.0,19.0,66,0.00,,,0.00,weatherlink.com 1.10,2013-06-22 16:34:00,
2013-06-22 12:49:00,86.8,74.0,29.91,NNE,33,5.0,15.0,65,0.00,,,0.00,weatherlink.com 1.10,2013-06-22 16:49:00,
2013-06-22 13:04:00,86.9,73.0,29.90,ESE,116,10.0,17.0,64,0.00,,,0.00,weatherlink.com 1.10,2013-06-22 17:04:00,
2013-06-22 13:19:00,86.6,73.0,29.90,ESE,109,10.0,16.0,65,0.00,,,0.00,weatherlink.com 1.10,2013-06-22 17:19:00,
2013-06-22 13:34:00,86.4,74.0,29.89,East,89,11.0,19.0,66,0.00,,,0.00,weatherlink.com 1.10,2013-06-22 17:34:00,
2013-06-22 13:49:00,86.0,74.0,29.88,East,89,10.0,22.0,67,0.00,,,0.00,weatherlink.com 1.10,2013-06-22 17:49:00,
2013-06-22 14:04:00,86.2,74.0,29.88,ESE,122,10.0,18.0,68,0.00,,,0.00,weatherlink.com 1.10,2013-06-22 18:04:00,
2013-06-22 14:19:00,86.0,74.0,29.87,ESE,113,8.0,18.0,67,0.00,,,0.00,weatherlink.com 1.10,2013-06-22 18:19:00,
2013-06-22 14:34:00,86.8,75.0,29.86,ESE,117,7.0,18.0,67,0.00,,,0.00,weatherlink.com 1.10,2013-06-22 18:34:00,
2013-06-22 14:49:00,86.7,74.0,29.86,NE,38,4.0,18.0,66,0.00,,,0.00,weatherlink.com 1.10,2013-06-22 18:49:00,
2013-06-22 15:04:00,86.1,74.0,29.85,ENE,58,5.0,16.0,68,0.00,,,0.00,weatherlink.com 1.10,2013-06-22 19:04:00,
2013-06-22 15:20:00,86.3,75.0,29.84,ESE,113,3.0,16.0,69,0.00,,,0.00,weatherlink.com 1.10,2013-06-22 19:20:00,
2013-06-22 15:35:00,85.4,75.0,29.84,ESE,119,7.0,17.0,70,0.00,,,0.00,weatherlink.com 1.10,2013-06-22 19:35:00,
2013-06-22 15:50:00,85.4,75.0,29.84,NNE,32,5.0,16.0,71,0.00,,,0.00,weatherlink.com 1.10,2013-06-22 19:50:00,
2013-06-22 16:05:00,85.0,75.0,29.84,East,96,10.0,17.0,71,0.00,,,0.00,weatherlink.com 1.10,2013-06-22 20:05:00,
2013-06-22 16:20:00,84.6,74.0,29.83,NNE,33,6.0,14.0,71,0.00,,,0.00,weatherlink.com 1.10,2013-06-22 20:20:00,
2013-06-22 16:35:00,84.7,75.0,29.83,NE,53,9.0,17.0,73,0.00,,,0.00,weatherlink.com 1.10,2013-06-22 20:35:00,
2013-06-22 16:50:00,84.3,75.0,29.83,East,96,13.0,17.0,74,0.00,,,0.00,weatherlink.com 1.10,2013-06-22 20:50:00,
2013-06-22 17:05:00,84.7,75.0,29.82,ENE,66,17.0,17.0,73,0.00,,,0.00,weatherlink.com 1.10,2013-06-22 21:05:00,
2013-06-22 17:20:00,84.2,75.0,29.82,East,99,13.0,16.0,74,0.00,,,0.00,weatherlink.com 1.10,2013-06-22 21:20:00,
2013-06-22 17:35:00,83.9,75.0,29.83,East,92,15.0,16.0,74,0.00,,,0.00,weatherlink.com 1.10,2013-06-22 21:35:00,
2013-06-22 17:50:00,83.7,75.0,29.83,ENE,59,9.0,17.0,74,0.00,,,0.00,weatherlink.com 1.10,2013-06-22 21:50:00,
2013-06-22 18:05:00,83.2,75.0,29.83,East,86,11.0,15.0,76,0.00,,,0.00,weatherlink.com 1.10,2013-06-22 22:05:00,
2013-06-22 18:20:00,82.9,74.0,29.83,East,88,13.0,14.0,75,0.00,,,0.00,weatherlink.com 1.10,2013-06-22 22:20:00,
2013-06-22 18:35:00,82.4,74.0,29.83,ESE,117,8.0,15.0,76,0.00,,,0.00,weatherlink.com 1.10,2013-06-22 22:35:00,
2013-06-22 18:50:00,82.1,74.0,29.83,East,92,8.0,15.0,77,0.00,,,0.00,weatherlink.com 1.10,2013-06-22 22:50:00,
2013-06-22 19:05:00,81.7,74.0,29.84,ESE,111,4.0,16.0,77,0.00,,,0.00,weatherlink.com 1.10,2013-06-22 23:05:00,
2013-06-22 19:20:00,81.7,74.0,29.84,East,86,5.0,16.0,78,0.00,,,0.00,weatherlink.com 1.10,2013-06-22 23:20:00,
2013-06-22 19:35:00,81.5,74.0,29.84,ENE,66,9.0,16.0,78,0.00,,,0.00,weatherlink.com 1.10,2013-06-22 23:35:00,
2013-06-22 19:50:00,81.4,74.0,29.85,East,85,10.0,17.0,78,0.00,,,0.00,weatherlink.com 1.10,2013-06-22 23:50:00,
2013-06-22 20:05:00,81.4,74.0,29.86,East,80,9.0,14.0,78,0.00,,,0.00,weatherlink.com 1.10,2013-06-23 00:05:00,
2013-06-22 20:20:00,81.4,74.0,29.86,NE,42,14.0,18.0,79,0.00,,,0.00,weatherlink.com 1.10,2013-06-23 00:20:00,
2013-06-22 20:35:00,81.3,74.0,29.87,ENE,65,4.0,17.0,79,0.00,,,0.00,weatherlink.com 1.10,2013-06-23 00:35:00,
2013-06-22 20:50:00,81.3,74.0,29.87,East,84,8.0,17.0,79,0.00,,,0.00,weatherlink.com 1.10,2013-06-23 00:50:00,
2013-06-22 21:05:00,81.2,75.0,29.88,NE,50,7.0,15.0,80,0.00,,,0.00,weatherlink.com 1.10,2013-06-23 01:05:00,
2013-06-22 21:20:00,81.3,74.0,29.89,ENE,76,7.0,16.0,79,0.00,,,0.00,weatherlink.com 1.10,2013-06-23 01:20:00,
2013-06-22 21:35:00,81.3,74.0,29.89,NE,46,5.0,16.0,79,0.00,,,0.00,weatherlink.com 1.10,2013-06-23 01:35:00,
2013-06-22 21:50:00,81.4,75.0,29.89,ESE,113,5.0,19.0,80,0.00,,,0.00,weatherlink.com 1.10,2013-06-23 01:50:00,
2013-06-22 22:05:00,81.4,75.0,29.90,NE,39,6.0,13.0,80,0.00,,,0.00,weatherlink.com 1.10,2013-06-23 02:05:00,
2013-06-22 22:20:00,81.4,74.0,29.90,NE,48,10.0,15.0,79,0.00,,,0.00,weatherlink.com 1.10,2013-06-23 02:20:00,
2013-06-22 22:35:00,81.5,74.0,29.91,ENE,67,14.0,16.0,78,0.00,,,0.00,weatherlink.com 1.10,2013-06-23 02:35:00,
2013-06-22 22:50:00,81.6,74.0,29.90,East,92,3.0,17.0,78,0.00,,,0.00,weatherlink.com 1.10,2013-06-23 02:50:00,
2013-06-22 23:05:00,81.6,74.0,29.91,ENE,67,5.0,13.0,77,0.00,,,0.00,weatherlink.com 1.10,2013-06-23 03:05:00,
2013-06-22 23:20:00,81.5,74.0,29.91,NE,36,5.0,16.0,78,0.00,,,0.00,weatherlink.com 1.10,2013-06-23 03:20:00,
2013-06-22 23:35:00,81.5,74.0,29.91,ENE,76,2.0,15.0,78,0.00,,,0.00,weatherlink.com 1.10,2013-06-23 03:35:00,
2013-06-22 23:50:00,81.4,74.0,29.91,ESE,123,10.0,16.0,78,0.00,,,0.00,weatherlink.com 1.10,2013-06-23 03:50:00,